Flag for Germany Weather past 2 weeks in Seelze, Lower Saxony, Germany

Now
82 °F

Broken clouds.


Feels Like: 86 °F
Forecast: 62 / 75 °F
Wind: 5 mph from West

Location: Hannover

Current Time: Jul 5, 2015 at 12:14:56 PM

Latest Report: Jul 5, 2015 at 11:50 AM


Visibility: N/A

Pressure: 30.04 "Hg

Humidity: 66%

Dew point: 70 °F

Location of SeelzeLocation

Historic Weather in Seelze — Graph

°F

Seelze temperature yesterday

Maximum temperature yesterday: 97 °F (at 2:50 PM)
Minimum temperature yesterday: 66 °F (at 2:50 AM)
Average temperature yesterday: 82 °F

Past Weeks' High & Low Weather Summary

 TemperatureHumidityPressure
High97 °F (Jul 4, 2:50 PM)100% (Jun 22, 3:20 AM)30.27 "Hg (Jun 22, 3:20 AM)
Low48 °F (Jun 22, 10:50 PM)31% (Jul 1, 6:20 PM)29.65 "Hg (Jun 22, 9:20 PM)
Average66 °F71%30.06 "Hg
* Reported Jun 20 11:20 AM — Jul 5 11:20 AM, Seelze, Weather by CustomWeather, © 2015

Note: Actual official high and low records may vary slightly from our data, if they occured in-between our weather recording intervals... More about our weather records

Advertising

Seelze weather history for previous 24 hours

 ConditionsComfort  
Time TempWeatherWind HumidityBarometerVisibility
11:20 AM
Sun, Jul 5
82 °FScattered clouds.2 mph66%30.04 "HgN/A
10:50 AM82 °FScattered clouds.3 mph62%30.04 "HgN/A
10:20 AM81 °FPassing clouds.3 mph66%30.07 "HgN/A
9:50 AM81 °FSunny.2 mph66%30.07 "Hg10 mi
9:20 AM81 °FSunny.2 mph70%30.04 "Hg10 mi
8:50 AM77 °FSunny.2 mph74%30.07 "Hg10 mi
8:20 AM75 °FSunny.1 mph78%30.07 "Hg10 mi
7:50 AM73 °FSunny.5 mph83%30.07 "Hg10 mi
7:20 AM72 °FPassing clouds.6 mph88%30.07 "HgN/A
6:50 AM70 °FSunny.5 mph94%30.07 "Hg10 mi
6:20 AM70 °FSunny.7 mph94%30.07 "Hg10 mi
5:50 AM70 °FClear.3 mph94%30.07 "Hg10 mi
5:20 AM70 °FPassing clouds.6 mph88%30.07 "HgN/A
4:50 AM70 °FClear.2 mph94%30.07 "Hg10 mi
4:20 AM70 °FClear.3 mph94%30.07 "Hg10 mi
3:50 AM70 °FPassing clouds.3 mph94%30.07 "HgN/A
3:20 AM70 °FPassing clouds.3 mph94%30.09 "HgN/A
2:50 AM72 °FClear.2 mph88%30.07 "Hg10 mi
2:20 AM72 °FPassing clouds.6 mph88%30.07 "HgN/A
1:50 AM72 °FClear.7 mph83%30.07 "Hg10 mi
1:20 AM72 °FClear.6 mph83%30.09 "Hg10 mi
12:50 AM73 °FClear.2 mph78%30.07 "Hg10 mi
12:20 AM73 °FClear.2 mph78%30.07 "Hg10 mi
11:50 PM
Sat, Jul 4
73 °FPassing clouds.6 mph78%30.09 "HgN/A
11:20 PM77 °FClear.1 mph69%30.07 "Hg10 mi
10:50 PM79 °FClear.8 mph65%30.04 "Hg10 mi
10:20 PM81 °FScattered clouds.6 mph62%30.04 "HgN/A
9:50 PM82 °FScattered clouds.10 mph58%30.04 "HgN/A
9:20 PM84 °FPartly sunny.9 mph62%30.04 "HgN/A
8:50 PM88 °FScattered clouds.9 mph55%30.04 "HgN/A
8:20 PM90 °FBroken clouds.5 mph49%30.04 "HgN/A
7:50 PM93 °FScattered clouds.7 mph44%30.01 "HgN/A
7:20 PM93 °FBroken clouds.6 mph44%30.01 "HgN/A
6:50 PM95 °FBroken clouds.9 mph39%30.01 "HgN/A
6:20 PM97 °FScattered clouds.5 mph34%30.01 "HgN/A
5:50 PM91 °FScattered showers. Scattered clouds.3 mph52%30.01 "HgN/A
5:20 PM93 °FScattered clouds.6 mph44%30.04 "HgN/A
4:50 PM95 °FScattered clouds.6 mph36%30.04 "HgN/A
4:20 PM97 °FPassing clouds.5 mph37%30.04 "HgN/A
3:50 PM97 °FPassing clouds.6 mph37%30.04 "HgN/A
3:20 PM97 °FPassing clouds.6 mph42%30.04 "HgN/A
2:50 PM97 °FPassing clouds.8 mph34%30.04 "HgN/A
2:20 PM95 °FPassing clouds.8 mph34%30.04 "HgN/A
1:50 PM95 °FPassing clouds.12 mph41%30.04 "HgN/A
1:20 PM95 °FPassing clouds.9 mph47%30.07 "HgN/A
12:50 PM93 °FPassing clouds.6 mph44%30.07 "HgN/A
12:20 PM93 °FPartly sunny.7 mph44%30.07 "HgN/A
Weather by CustomWeather, © 2015

See weather overviewHow to use our weather pages